[Iaude] MPEC B42: 2017 BE3 [a=2.44,e=0.75,i=14.3,H=19.8]

mpec at si.edu mpec at si.edu
Sun Jan 22 22:01:50 EST 2017


M.P.E.C. 2017-B42                                Issued 2017 Jan. 23, 02:56 UT
 
     The Minor Planet Electronic Circulars contain information on unusual
         minor planets and routine data on comets.  They are published
    on behalf of Division F of the International Astronomical Union by the
          Minor Planet Center, Smithsonian Astrophysical Observatory,
                          Cambridge, MA 02138, U.S.A.

             Prepared using the Tamkin Foundation Computer Network

                              MPC at CFA.HARVARD.EDU
            URL http://www.minorplanetcenter.net/    ISSN 1523-6714


                                   2017 BE3
 
Observations:
     K17B03E* C2017 01 19.16195 03 57 23.35 +31 32 47.2          20.9 VqEB042G96
     K17B03E  C2017 01 19.16624 03 57 22.50 +31 32 47.7          20.8 VqEB042G96
     K17B03E  C2017 01 19.17053 03 57 21.73 +31 32 49.4          20.9 VqEB042G96
     K17B03E  C2017 01 19.17481 03 57 20.96 +31 32 49.7                qEB042G96
     K17B03E  C2017 01 19.29471 03 56 59.04 +31 33 22.6          21.5 VqEB042G96
     K17B03E  C2017 01 19.30097 03 56 57.78 +31 33 22.3                qEB042G96
     K17B03E  C2017 01 19.30392 03 56 57.30 +31 33 23.4          21.1 VqEB042G96
     K17B03E KC2017 01 19.75325 03 55 38.65 +31 35 26.7                qEB042J95
     K17B03E KC2017 01 19.77093 03 55 35.44 +31 35 32.1                qEB042J95
     K17B03E KC2017 01 19.78567 03 55 32.79 +31 35 36.1          20.5 RqEB042J95
     K17B03E KC2017 01 20.74967 03 52 43.85 +31 39 58.6                qEB042J95
     K17B03E KC2017 01 20.76768 03 52 40.68 +31 40 03.5                qEB042J95
     K17B03E KC2017 01 20.79403 03 52 36.04 +31 40 10.6                qEB042J95
     K17B03E KC2017 01 20.80673 03 52 33.64 +31 40 14.6          20.8 VSEB042595
     K17B03E KC2017 01 20.81726 03 52 31.89 +31 40 17.1          20.5 RqEB042J95
     K17B03E KC2017 01 20.83067 03 52 29.32 +31 40 22.0          20.8 VSEB042595
     K17B03E HC2017 01 20.89564 03 52 17.77 +31 40 38.1          21   GUEB042204
     K17B03E HC2017 01 20.91603 03 52 14.14 +31 40 43.3                UEB042204
     K17B03E KC2017 01 20.96350 03 52 05.83 +31 40 54.8          20.5 RqEB042587
     K17B03E KC2017 01 20.97204 03 52 04.30 +31 40 57.9                qEB042587
     K17B03E KC2017 01 20.98271 03 52 02.47 +31 41 00.0          20.5 RqEB042587
     K17B03E  C2017 01 22.11060 03 48 50.19 +31 46 01.4          21.1 RoEB042926
     K17B03E  C2017 01 22.12005 03 48 48.53 +31 46 03.8          21.2 RoEB042926
     K17B03E  C2017 01 22.12950 03 48 46.86 +31 46 06.4          21.0 RoEB042926
     K17B03E KC2017 01 22.79643 03 46 54.92 +31 48 51.6                qEB042J95
     K17B03E KC2017 01 22.81393 03 46 51.89 +31 48 56.7                qEB042J95
     K17B03E KC2017 01 22.83183 03 46 48.83 +31 49 01.1          20.7 RqEB042J95
 
Observer details:
204 Schiaparelli Observatory.  Observer L. Buzzi.  0.60-m f/4.64 reflector
    + CCD.
587 Sormano.  Observers A. Fumagalli, F. Manca, P. Sicoli, A. Testa.  Measurer
    P. Sicoli.  0.5-m f/6.8 reflector + CCD.
595 Farra d'Isonzo.  Observers L. Bittesini, F. Bressan, E. Pettarin, F. Piani.
    Measurer E. Pettarin.  0.61-m f/4.0 reflector + CCD.
926 Tenagra II Observatory.  Observers M. Schwartz, P. R. Holvorcem.  Measurer
    M. Schwartz.  0.81-m f/7 Ritchey-Chretien + CCD.
G96 Mt. Lemmon Survey.  Observer G. J. Leonard.  Measurers E. J. Christensen,
    D. C. Fuls, A. R. Gibbs, A. D. Grauer, J. A. Johnson, R. A. Kowalski,
    S. M. Larson, G. J. Leonard, R. G. Matheny, R. L. Seaman, F. C. Shelly.
    1.5-m reflector + 10K CCD.
J95 Great Shefford.  Observer P. Birtwhistle.  0.40-m f/6.0 Schmidt-Cassegrain
    + CCD.
 
Orbital elements:
2017 BE3                                                 Earth MOID = 0.1335 AU
Epoch 2017 Feb. 16.0 TT = JDT 2457800.5                 MPC
M 346.18825              (2000.0)            P               Q
n   0.25924926     Peri.  129.31435     -0.85742306     +0.45370373
a   2.4358902      Node    78.91767     -0.51441228     -0.74249446
e   0.7462222      Incl.   14.32785     -0.01434198     -0.49280310
P   3.80           H   19.8           G   0.15           U   8
Residuals in seconds of arc
170119 G96  0.2+  0.5+    170119 J95  0.2+  0.2-    170120 587  0.1+  0.1-
170119 G96  0.6-  0.2-    170120 J95  0.5-  0.3+    170120 587  0.3-  0.9+
170119 G96  0.3-  0.4+    170120 J95  0.2-  0.1+    170120 587  0.2+  0.5+
170119 G96  0.1-  0.5-    170120 J95  0.4+  0.1-    170122 926  0.1-  0.0
170119 G96  0.5+  1.1+    170120 595  0.9+  0.9-    170122 926  0.1-  0.1-
170119 G96  1.0-  0.8-    170120 J95  0.1+  0.1+    170122 926  0.3-  0.1+
170119 G96  0.3-  0.4-    170120 595  0.3+  0.3+    170122 J95  0.3+  0.4-
170119 J95  0.2+  0.2-    170120 204  0.5-  0.3-    170122 J95  0.1-  0.2+
170119 J95  0.0   0.1+    170120 204  0.7-  0.2-    170122 J95  0.1-  0.1+

Ephemeris:
2017 BE3                 a,e,i = 2.44, 0.75, 14                  q = 0.6182
Date    TT    R. A. (2000) Decl.     Delta      r     Elong.  Phase     V
2016 12 24    05 21 09.6 +28 12 40   0.7585  1.7326   167.9     6.8    20.9
...
2017 01 08    04 33 00.0 +30 27 15   0.6687  1.5684   142.7    22.3    21.0
...
2017 01 16    04 07 02.8 +31 17 01   0.6440  1.4774   129.2    31.1    21.0
...
2017 01 22    03 49 09.0 +31 45 33   0.6327  1.4077   119.5    37.5    21.1
2017 01 23    03 46 21.0 +31 49 48   0.6312  1.3959   117.9    38.5    21.1
2017 01 24    03 43 36.5 +31 53 58   0.6298  1.3841   116.3    39.6    21.1
...
2017 01 30    03 28 25.9 +32 17 50   0.6229  1.3127   107.3    45.8    21.1
...
2017 02 07    03 11 33.4 +32 51 11   0.6144  1.2158    96.1    53.8    21.1
...
2017 02 22    02 47 11.8 +34 12 17   0.5861  1.0311    77.1    69.3    21.1

A. U. Tomatic                (C) Copyright 2017 MPC           M.P.E.C. 2017-B42




More information about the Iaude mailing list